Weather History for Shelton, WA

Change the Weather History Date:

Saturday, November 17, 2012

  Actual Average Record
Temperature  
Mean Temperature 48 °F -  
Max Temperature 53 °F 50 °F 77 °F (2000)
Min Temperature 42 °F 38 °F 17 °F (1955)
Degree Days  
Heating Degree Days 18    
Moisture  
Dew Point 44 °F    
Average Humidity 92    
Maximum Humidity 100    
Minimum Humidity 77    
Precipitation  
Precipitation 0.29 in - - ()
Sea Level Pressure  
Sea Level Pressure 29.57 in    
Wind  
Wind Speed 5 mph (SSW)    
Max Wind Speed 20 mph    
Max Gust Speed 29 mph    
Visibility 10 miles    
Events Rain    
Averages and records for this station are not official NWS values.
T = Trace of Precipitation, MM = Missing Value Source: NWS Daily Summary

Daily Weather History Graph

Daily Weather History Graph

Search for Another Location

Airport:

Trip Planner

Search our weather history database for the weather conditions in past years. The results will help you decide how hot, cold, wet, or windy it might be!

Date:

Astronomy

Nov. 17, 2012 Rise Set
Actual Time 7:20 AM PST 4:34 PM PST
Civil Twilight 6:46 AM PST 5:08 PM PST
Nautical Twilight 6:09 AM PST 5:45 PM PST
Astronomical Twilight 5:33 AM PST 6:21 PM PST
Moon 11:09 AM PST (11/17) 8:52 PM PST (11/17)
Length of Visible Light 10h 21m
Length of Day
9h 14m
Waxing Crescent, 21% of the Moon is Illuminated
Nov 17
Waxing Crescent
Nov 20
First Quarter
Nov 28
Full
Dec 6
Last Quarter
Dec 13
New

Hourly Weather History & Observations

Time (PST) Temp. Windchill Dew Point Humidity Pressure Visibility Wind Dir Wind Speed Gust Speed Precip Events Conditions
12:53 AM 45.0 °F - 44.1 °F 97% 29.66 in 10.0 mi Calm Calm - 0.00 in Rain Light Rain
1:53 AM 45.0 °F - 45.0 °F 100% 29.63 in 10.0 mi Calm Calm - 0.02 in Rain Light Rain
2:53 AM 46.0 °F - 45.0 °F 96% 29.61 in 10.0 mi Calm Calm - 0.04 in Rain Light Rain
3:27 AM 46.4 °F - 46.4 °F 100% 29.58 in 10.0 mi Calm Calm - N/A   Overcast
3:53 AM 46.9 °F - 46.0 °F 97% 29.57 in 10.0 mi Calm Calm - 0.01 in Rain Light Rain
4:53 AM 46.9 °F - 46.0 °F 97% 29.55 in 10.0 mi Calm Calm - 0.00 in   Overcast
5:53 AM 50.0 °F - 45.0 °F 83% 29.55 in 10.0 mi SSE 8.1 mph - N/A   Overcast
6:53 AM 51.1 °F - 46.0 °F 83% 29.53 in 10.0 mi Variable 4.6 mph - 0.00 in   Overcast
7:53 AM 52.0 °F - 46.0 °F 80% 29.52 in 10.0 mi SE 4.6 mph - N/A   Overcast
8:05 AM 51.8 °F - 46.4 °F 82% 29.50 in 10.0 mi ESE 4.6 mph - N/A   Overcast
8:53 AM 52.0 °F - 46.0 °F 80% 29.49 in 10.0 mi SE 10.4 mph - N/A   Overcast
9:39 AM 53.6 °F - 46.4 °F 77% 29.47 in 10.0 mi SE 5.8 mph - 0.00 in Rain Light Rain
9:53 AM 53.1 °F - 48.0 °F 83% 29.47 in 10.0 mi SSE 8.1 mph 16.1 mph 0.00 in Rain Light Rain
10:15 AM 50.0 °F - 48.2 °F 94% 29.49 in 10.0 mi SW 19.6 mph 26.5 mph 0.02 in Rain Light Rain
10:36 AM 48.2 °F - 46.4 °F 93% 29.50 in 10.0 mi SW 16.1 mph 25.3 mph 0.02 in Rain Light Rain
10:51 AM 48.2 °F - 46.4 °F 93% 29.50 in 10.0 mi WSW 12.7 mph 20.7 mph 0.02 in Rain Light Rain
10:53 AM 48.0 °F - 46.0 °F 93% 29.52 in 10.0 mi SW 19.6 mph 25.3 mph 0.02 in Rain Light Rain
11:14 AM 46.4 °F 39.5 °F 44.6 °F 93% 29.52 in 10.0 mi WSW 17.3 mph - 0.01 in Rain Light Rain
11:32 AM 46.4 °F 39.0 °F 42.8 °F 87% 29.53 in 10.0 mi WSW 19.6 mph 28.8 mph 0.02 in Rain Light Rain
11:44 AM 44.6 °F 38.1 °F 42.8 °F 93% 29.52 in 10.0 mi WSW 13.8 mph 27.6 mph 0.03 in Rain Light Rain
11:53 AM 45.0 °F 37.9 °F 43.0 °F 93% 29.53 in 10.0 mi WSW 16.1 mph - 0.03 in Rain Light Rain
12:00 PM 44.6 °F 37.8 °F 42.8 °F 93% 29.52 in 10.0 mi WSW 15.0 mph 21.9 mph 0.00 in Rain Light Rain
12:53 PM 44.1 °F 38.6 °F 42.1 °F 93% 29.55 in 10.0 mi WSW 10.4 mph 21.9 mph 0.02 in Rain Light Rain
1:32 PM 44.6 °F 42.2 °F 42.8 °F 93% 29.54 in 10.0 mi SSW 4.6 mph - 0.02 in Rain Light Rain
1:40 PM 44.6 °F 39.7 °F 42.8 °F 93% 29.54 in 10.0 mi SSW 9.2 mph - 0.03 in Rain Light Rain
1:53 PM 44.1 °F 40.8 °F 42.1 °F 93% 29.55 in 10.0 mi SSW 5.8 mph - 0.04 in Rain Light Rain
2:53 PM 44.1 °F 41.5 °F 42.1 °F 93% 29.57 in 10.0 mi South 4.6 mph - 0.00 in   Overcast
3:53 PM 44.1 °F 40.8 °F 42.1 °F 93% 29.60 in 10.0 mi South 5.8 mph - 0.00 in   Overcast
4:22 PM 44.6 °F - 42.8 °F 93% 29.60 in 10.0 mi Calm Calm - N/A   Overcast
4:53 PM 44.1 °F - 42.1 °F 93% 29.61 in 10.0 mi Calm Calm - 0.00 in Rain Light Rain
5:05 PM 44.6 °F - 42.8 °F 93% 29.60 in 10.0 mi Calm Calm - 0.01 in Rain Light Rain
5:14 PM 42.8 °F - 42.8 °F 100% 29.60 in 10.0 mi Calm Calm - 0.01 in   Overcast
5:53 PM 42.1 °F 38.4 °F 41.0 °F 96% 29.62 in 10.0 mi ESE 5.8 mph - 0.01 in   Mostly Cloudy
6:53 PM 43.0 °F 40.3 °F 42.1 °F 97% 29.62 in 10.0 mi ESE 4.6 mph - N/A   Overcast
7:53 PM 42.1 °F 39.2 °F 41.0 °F 96% 29.63 in 10.0 mi South 4.6 mph - 0.07 in Rain Rain
8:30 PM 42.8 °F 40.1 °F 41.0 °F 93% 29.63 in 10.0 mi WSW 4.6 mph - 0.03 in Rain Light Rain
8:40 PM 42.8 °F 40.1 °F 41.0 °F 93% 29.64 in 10.0 mi WSW 4.6 mph - 0.03 in Rain Light Rain
8:53 PM 43.0 °F 40.3 °F 41.0 °F 93% 29.65 in 10.0 mi SSE 4.6 mph - 0.03 in Rain Light Rain
9:13 PM 42.8 °F 40.1 °F 41.0 °F 93% 29.63 in 10.0 mi SE 4.6 mph - 0.00 in   Mostly Cloudy
9:53 PM 42.1 °F - 41.0 °F 96% 29.66 in 10.0 mi Calm Calm - 0.00 in   Mostly Cloudy
10:53 PM 42.1 °F 40.2 °F 41.0 °F 96% 29.68 in 10.0 mi SE 3.5 mph - N/A   Mostly Cloudy
11:53 PM 42.1 °F 38.4 °F 41.0 °F 96% 29.69 in 10.0 mi SE 5.8 mph - 0.00 in Rain Light Rain